Elkins, WV

11:01 AM EST on November 21, 2019 (GMT -0500)
Elkins-Randolph County

Weather History for KEKN - September, 2019

Change the Weather History Date:

Sunday, September 1, 2019

  Actual Average Record
Temperature  
Mean Temperature 72 °F 67 °F  
Max Temperature 82 °F 78 °F 94 °F (1932)
Min Temperature 62 °F 56 °F 38 °F (1999)
Degree Days  
Heating Degree Days 0 1  
Month to date heating degree days 0 1  
Since 1 July heating degree days 7 31  
Cooling Degree Days 8 3  
Month to date cooling degree days 8 3  
Year to date cooling degree days 679 429  
Growing Degree Days 22 (Base 50)    
Moisture  
Dew Point 60 °F    
Average Humidity 67    
Maximum Humidity 90    
Minimum Humidity 45    
Precipitation  
Precipitation 0.00 in 0.12 in 1.43 in (1981)
Month to date precipitation 0.00 0.12  
Year to date precipitation 37.71 32.93  
Sea Level Pressure  
Sea Level Pressure 30.20 in    
Wind  
Wind Speed 3 mph ()    
Max Wind Speed 14 mph    
Max Gust Speed 22 mph    
Visibility 10.0 miles    
Events      
T = Trace of Precipitation, MM = Missing Value Source: Averaged Metar Reports

Daily Weather History Graph

Daily Weather History Graph

Search for Another Location

Airport or City:

Astronomy

Sep. 01, 2019 Rise Set
Actual Time 6:48 AM EDT 7:50 PM EDT
Civil Twilight 6:20 AM EDT 8:17 PM EDT
Nautical Twilight 5:48 AM EDT 8:49 PM EDT
Astronomical Twilight 5:14 AM EDT 9:23 PM EDT
Moon 9:15 AM EDT (9/1) 9:38 PM EDT (9/1)
Length of Visible Light 13h 56m
Length of Day
13h 01m
Waxing Crescent, 8% of the Moon is Illuminated
Sep 1
Waxing Crescent
Sep 5
First Quarter
Sep 14
Full
Sep 21
Last Quarter
Sep 28
New

Hourly Weather History & Observations

Time (EDT) Temp. Heat Index Dew Point Humidity Pressure Visibility Wind Dir Wind Speed Gust Speed Precip Events Conditions
12:51 AM 66.9 °F - 61.0 °F 81% 30.22 in 10.0 mi West 4.6 mph - N/A   Clear
1:51 AM 66.0 °F - 61.0 °F 84% 30.23 in 10.0 mi WNW 4.6 mph - N/A   Partly Cloudy
2:51 AM 66.0 °F - 60.1 °F 81% 30.23 in 10.0 mi Calm Calm - N/A   Partly Cloudy
3:51 AM 64.0 °F - 60.1 °F 87% 30.22 in 10.0 mi Calm Calm - N/A   Clear
4:51 AM 64.0 °F - 60.1 °F 87% 30.20 in 10.0 mi SE 3.5 mph - N/A   Mostly Cloudy
5:51 AM 64.0 °F - 60.1 °F 87% 30.22 in 10.0 mi Calm Calm - N/A   Clear
6:51 AM 62.1 °F - 57.9 °F 86% 30.23 in 10.0 mi Calm Calm - N/A   Clear
7:51 AM 63.0 °F - 59.0 °F 87% 30.26 in 10.0 mi Calm Calm - N/A   Clear
8:51 AM 69.1 °F - 59.0 °F 70% 30.27 in 10.0 mi North 3.5 mph - N/A   Clear
9:51 AM 73.0 °F - 61.0 °F 66% 30.27 in 10.0 mi NNW 3.5 mph - N/A   Clear
10:51 AM 75.0 °F - 62.1 °F 64% 30.27 in 10.0 mi Calm Calm - N/A   Overcast
11:51 AM 79.0 °F - 64.0 °F 60% 30.25 in 10.0 mi Calm Calm - N/A   Partly Cloudy
12:51 PM 79.0 °F - 62.1 °F 56% 30.23 in 10.0 mi SW 5.8 mph - N/A   Mostly Cloudy
1:51 PM 81.0 °F 82.2 °F 63.0 °F 54% 30.21 in 10.0 mi SSW 6.9 mph - N/A   Mostly Cloudy
2:51 PM 81.0 °F 81.6 °F 60.1 °F 49% 30.19 in 10.0 mi SSW 8.1 mph - N/A   Scattered Clouds
3:51 PM 81.0 °F 81.1 °F 57.9 °F 45% 30.17 in 10.0 mi South 12.7 mph 18.4 mph N/A   Clear
4:51 PM 81.0 °F 81.3 °F 59.0 °F 47% 30.16 in 10.0 mi South 6.9 mph - N/A   Clear
5:51 PM 80.1 °F 80.7 °F 59.0 °F 48% 30.16 in 10.0 mi SSE 8.1 mph - N/A   Clear
6:51 PM 77.0 °F - 60.1 °F 56% 30.16 in 10.0 mi SSE 6.9 mph - N/A   Clear
7:51 PM 75.0 °F - 59.0 °F 57% 30.17 in 10.0 mi South 4.6 mph - N/A   Clear
8:51 PM 71.1 °F - 60.1 °F 68% 30.16 in 10.0 mi SSE 6.9 mph - N/A   Clear
9:51 PM 71.1 °F - 60.1 °F 68% 30.15 in 10.0 mi SSE 6.9 mph - N/A   Clear
10:51 PM 72.0 °F - 59.0 °F 64% 30.14 in 10.0 mi SSE 8.1 mph - N/A   Clear
11:51 PM 71.1 °F - 60.1 °F 68% 30.14 in 10.0 mi SSE 8.1 mph - N/A   Clear